EDT,Max TemperatureF,Mean TemperatureF,Min TemperatureF,Max Dew PointF,MeanDew PointF,Min DewpointF,Max Humidity, Mean Humidity, Min Humidity, Max Sea Level PressureIn, Mean Sea Level PressureIn, Min Sea Level PressureIn, Max VisibilityMiles, Mean VisibilityMiles, Min VisibilityMiles, Max Wind SpeedMPH, Mean Wind SpeedMPH, Max Gust SpeedMPH,PrecipitationIn, CloudCover, Events, WindDirDegrees
2013-6-1,88,75,61,63,59,57,90,63,36,30.05,29.99,29.92,10,10,10,18,6,22,T,3,,200
2013-6-2,72,68,64,67,65,62,93,83,73,30.04,29.95,29.87,10,7,2,10,2,13,0.47,7,Rain-Thunderstorm,186
2013-6-3,81,72,62,65,62,57,93,69,45,29.98,29.91,29.86,10,10,5,20,4,28,0.03,6,Rain,256
2013-6-4,83,76,68,61,58,56,93,67,40,30.09,30.03,29.96,10,9,5,8,2,10,0.00,3,,13
2013-6-5,87,73,58,67,62,57,93,66,39,30.04,29.97,29.89,10,9,4,14,3,17,0.22,5,Rain-Thunderstorm,175
2013-6-6,81,73,64,66,64,63,100,77,54,29.97,29.82,29.73,10,8,2,15,4,19,0.00,6,,220
2013-6-7,78,71,64,66,64,61,93,75,56,29.83,29.73,29.67,10,8,1,21,2,26,0.40,7,Rain,358
2013-6-8,81,72,62,63,61,58,93,71,48,30.06,29.95,29.83,10,7,2,12,3,14,0.09,5,Rain,247
2013-6-9,86,73,60,68,63,60,100,72,44,30.12,30.04,29.98,10,8,3,17,2,26,0.31,6,Rain,121
2013-6-10,79,72,65,67,64,60,93,74,54,29.99,29.91,29.85,10,10,2,22,7,30,0.52,6,Rain,235
2013-6-11,81,72,62,64,62,59,100,76,51,30.03,29.97,29.91,10,8,1,13,5,17,T,4,Rain-Thunderstorm,257
2013-6-12,90,76,62,72,67,62,100,76,52,30.01,29.95,29.88,10,9,4,15,6,18,0.00,4,,239
2013-6-13,84,74,63,71,67,55,90,78,65,29.88,29.80,29.70,10,8,0,26,9,34,0.59,6,Rain-Thunderstorm,257
2013-6-14,79,67,55,58,55,51,100,70,39,30.05,29.94,29.85,10,9,2,15,4,20,0.00,2,,315
2013-6-15,82,68,53,60,56,52,100,71,42,30.13,30.07,30.02,10,10,10,13,3,16,0.00,2,,273
2013-6-16,84,72,60,66,62,59,97,73,48,30.10,30.04,29.98,10,10,9,15,4,22,T,6,Rain,233
2013-6-17,81,73,65,68,66,63,100,82,64,30.08,29.99,29.91,10,10,5,20,4,28,0.18,6,Rain,203
2013-6-18,74,69,63,68,65,62,93,81,68,29.95,29.89,29.83,10,6,1,13,3,16,2.90,7,Rain,270
2013-6-19,81,71,60,65,62,59,100,77,54,30.09,30.01,29.94,10,5,0,8,2,10,0.12,5,Fog,37
2013-6-20,85,72,59,64,61,59,100,72,43,30.19,30.14,30.08,10,8,2,13,2,15,0.00,4,,202
2013-6-21,86,74,62,64,62,60,93,69,44,30.25,30.18,30.12,10,10,5,14,2,18,0.00,4,Thunderstorm,167
2013-6-22,86,73,60,61,59,52,97,65,32,30.24,30.17,30.07,10,9,2,8,2,10,0.00,2,,29
2013-6-23,88,74,60,64,60,57,93,67,40,30.19,30.13,30.08,10,10,10,10,2,12,0.00,4,,32
2013-6-24,86,75,64,67,65,62,93,72,51,30.19,30.12,30.06,10,10,7,10,3,14,T,4,,256
2013-6-25,83,74,65,69,67,64,93,76,58,30.19,30.08,30.00,10,10,7,16,3,21,0.06,5,Rain-Thunderstorm,284
2013-6-26,85,75,65,70,67,64,100,80,59,30.09,30.00,29.88,10,6,1,22,3,27,0.50,6,Thunderstorm,255
2013-6-27,82,74,65,72,66,63,93,81,69,29.96,29.86,29.75,10,7,1,23,5,32,1.15,7,Rain-Thunderstorm,232
2013-6-28,85,75,65,70,68,63,97,79,60,29.84,29.73,29.62,10,8,5,18,7,24,T,6,Rain-Thunderstorm,243
2013-6-29,83,73,63,66,63,57,100,72,43,29.73,29.66,29.62,10,8,4,15,5,22,T,5,Rain,235
2013-6-30,86,73,60,66,62,57,97,69,40,29.85,29.74,29.68,10,9,2,20,3,25,0.83,5,Rain-Thunderstorm,294